{"data":{"norad_id":65225,"intl_designator":"2025-176AD","name":"STARLINK-34257","alt_names":[],"object_type":"PAYLOAD","status":"ACTIVE","operator":null,"country":"US","launch_date":"2025-08-14","launch_site_code":"AFETR","launch_vehicle":null,"mission":null,"orbit_class":"UNKNOWN","rcs_meters":null,"size_class":null,"mass_kg":null,"dimensions":null,"purposes":["comms"],"wikipedia_slug":null,"has_3d_model":false,"image_url":null,"decayed_at":null,"tle_current":{"epoch":"2026-05-24T10:22:04.562400Z","epoch_age_seconds":118006,"freshness":"FRESH","line1":"1 65225U 25176AD  26144.43199725  .00015645  00000+0  47325-3 0  9992","line2":"2 65225  53.1586 160.4319 0000950  79.0934 281.0176 15.34395957 44666","mean_motion":15.34395957,"eccentricity":9.5e-5,"inclination_deg":53.1586,"raan_deg":160.4319,"arg_perigee_deg":79.0934,"mean_anomaly_deg":281.0176,"bstar":0.00047325,"rev_number":4466,"period_min":93.848005362021,"perigee_km":462.06537591711,"apogee_km":463.36513784592,"semimajor_km":6840.8522568815,"source":"CELESTRAK","updated_at":"2026-05-25T13:38:20.723564Z"}}}